[[[{"header":{"parameterUnit":"kt","parameterCategory":2,"dx":1,"dy":1,"la1":30.253999710083008,"la2":30.299108505249023,"lo1":-89.0895004272461,"lo2":-89.04439544677734,"nx":28,"ny":28,"refTime":"2022-11-01T21:00:00:Z","depth":0,"parameterNumber":1,"parameterNumberName":"U-component_of_WINDS"},"data":[-5.6762,-5.6859,-5.6858,-5.6969,-5.6987,-5.7064,-5.7091,-5.7126,-5.7154,-5.7246,-5.7299,-5.7308,-5.7336,-5.74,-5.7459,-5.7461,-5.7488,-5.7525,-5.7523,-5.7357,-5.7334,-5.7312,-5.729,-5.753,-5.753,-5.7697,-5.7699,-5.77,-5.6648,-5.6667,-5.6724,-5.6779,-5.6829,-5.6793,-5.6834,-5.6879,-5.6948,-5.6981,-5.7032,-5.7113,-5.7176,-5.7191,-5.7253,-5.7301,-5.7288,-5.7318,-5.7316,-5.7322,-5.7144,-5.712,-5.7327,-5.7327,-5.7327,-5.7327,-5.7327,-5.7327,-5.6442,-5.6499,-5.653,-5.6592,-5.6618,-5.6655,-5.671,-5.6718,-5.6774,-5.6836,-5.6822,-5.69,-5.6933,-5.7004,-5.7028,-5.709,-5.7057,-5.7089,-5.7098,-5.7108,-5.7121,-5.6889,-5.7099,-5.7099,-5.7098,-5.7098,-5.7097,0,-5.6291,-5.6286,-5.6338,-5.6392,-5.6436,-5.6477,-5.6514,-5.6547,-5.6534,-5.658,-5.6648,-5.6686,-5.6763,-5.6828,-5.6883,-5.69,-5.6869,-5.6863,-5.6887,-5.6898,-5.6903,-5.6907,-5.6621,-5.6858,-5.6856,-5.6854,-5.6853,-5.6852,-5.6087,-5.6151,-5.6181,-5.6219,-5.6237,-5.6297,-5.6333,-5.6315,-5.6354,-5.6397,-5.6449,-5.6511,-5.656,-5.6669,-5.6677,-5.6735,-5.6721,-5.6813,-5.6729,-5.6738,-5.6729,-5.6727,-5.6736,-5.683,-5.6833,-5.6835,-5.6837,0,-5.5973,-5.5967,-5.6066,-5.6087,-5.6095,-5.6164,-5.6183,-5.6239,-5.6238,-5.6315,-5.6332,-5.6333,-5.6399,-5.6392,-5.6465,-5.646,-5.6581,-5.6562,-5.6571,-5.6568,-5.6654,-5.6648,-5.6921,-5.6959,-5.6704,-5.6707,-5.6709,0,-5.5799,-5.5883,-5.5869,-5.5926,-5.6021,-5.5999,-5.6093,-5.6102,-5.6127,-5.6187,-5.6148,-5.6206,-5.6185,-5.6243,-5.6235,-5.6331,-5.6342,-5.6346,-5.6344,-5.6352,-5.6352,-5.6375,-5.6366,-5.6328,-5.6327,-5.6326,-5.6324,0,-5.5624,-5.5712,-5.5805,-5.5824,-5.5854,-5.5898,-5.5913,-5.5939,-5.5973,-5.6016,-5.6039,-5.609,-5.6119,-5.6161,-5.615,-5.6094,-5.6265,-5.6186,-5.6269,-5.627,-5.6309,-5.6307,-5.6549,-5.6323,-5.6322,-5.6322,-5.6321,0,-5.5483,-5.5524,-5.5656,-5.5681,-5.5705,-5.5765,-5.5814,-5.5862,-5.5893,-5.5891,-5.5924,-5.5897,-5.5975,-5.5899,-5.6009,-5.594,-5.5972,-5.5981,-5.5986,-5.5996,-5.5912,-5.6054,-5.6281,-5.6307,-5.6003,-5.6,-5.5998,0,-5.5288,-5.5418,-5.5399,-5.5524,-5.5583,-5.5536,-5.5602,-5.5629,-5.5631,-5.5683,-5.5685,-5.5743,-5.5683,-5.57,-5.5755,-5.5761,-5.585,-5.5748,-5.5829,-5.5832,-5.5827,-5.6034,-5.6072,-5.6231,-5.5963,-5.5967,-5.5969,0,-5.5136,-5.5168,-5.5191,-5.5213,-5.5242,-5.529,-5.5364,-5.5416,-5.5452,-5.5483,-5.5549,-5.5626,-5.5587,-5.5614,-5.5596,-5.5654,-5.5789,-5.5603,-5.5603,-5.5641,-5.5943,-5.5979,-5.6006,-5.5765,-5.5769,-5.5772,-5.5942,0,-5.4933,-5.4994,-5.5054,-5.5099,-5.5133,-5.5209,-5.5197,-5.5235,-5.5215,-5.5214,-5.5306,-5.5322,-5.5375,-5.54,-5.5379,-5.5512,-5.5489,-5.5444,-5.5371,-5.5505,-5.5561,-5.5583,-5.5289,-5.5287,-5.5285,-5.5283,0,0,-5.4751,-5.4837,-5.4811,-5.4881,-5.4909,-5.4856,-5.4939,-5.4959,-5.5002,-5.5023,-5.4981,-5.5095,-5.511,-5.5223,-5.5263,-5.5282,-5.5307,-5.5259,-5.544,-5.5457,-5.5474,-5.5534,-5.5557,-5.528,-5.5279,-5.5278,-5.5278,0,-5.4674,-5.4687,-5.4767,-5.4787,-5.4815,-5.4809,-5.4828,-5.4847,-5.485,-5.4936,-5.4893,-5.4945,-5.5033,-5.5058,-5.5081,-5.5244,-5.5209,-5.526,-5.5354,-5.5421,-5.5441,-5.5459,-5.5522,-5.5544,-5.5273,-5.5273,-5.5274,0,-5.4525,-5.4538,-5.4574,-5.463,-5.4647,-5.4707,-5.4627,-5.4691,-5.4736,-5.4674,-5.476,-5.4768,-5.4796,-5.4902,-5.4948,-5.4912,-5.5122,-5.5051,-5.5062,-5.5068,-5.5132,-5.5156,-5.5178,-5.4896,-5.4895,-5.4894,0,0,-5.4461,-5.4515,-5.4522,-5.4612,-5.4626,-5.4618,-5.4647,-5.4628,-5.4654,-5.4664,-5.4672,-5.4699,-5.4751,-5.4785,-5.4833,-5.4949,-5.4955,-5.5005,-5.5023,-5.5037,-5.5051,-5.5119,-5.5143,-5.4889,-5.4889,-5.4889,0,0,-5.443,-5.4441,-5.4414,-5.4517,-5.4543,-5.4555,-5.4612,-5.458,-5.4621,-5.4611,-5.4582,-5.4588,-5.4686,-5.4694,-5.4632,-5.4807,-5.4734,-5.4748,-5.4798,-5.482,-5.4838,-5.4835,-5.4553,0,0,0,0,0,-5.4344,-5.4439,-5.4415,-5.443,-5.45,-5.4569,-5.4577,-5.4556,-5.4506,-5.4552,-5.4554,-5.4512,-5.4656,-5.4601,-5.4617,-5.4686,-5.4828,-5.4839,-5.4849,-5.4941,-5.4964,-5.4984,0,0,0,0,0,0,-5.435,-5.4368,-5.4413,-5.4429,-5.4444,-5.4565,-5.4476,-5.4473,-5.4501,-5.4492,-5.4513,-5.4513,-5.4496,-5.4591,-5.4606,-5.4672,-5.4548,-5.4832,-5.4842,-5.485,-5.4949,-5.4968,-5.4984,0,0,0,0,0,-5.4354,-5.4369,-5.4485,-5.4428,-5.4441,-5.4435,-5.4472,-5.4469,-5.449,-5.4492,-5.449,-5.4471,-5.4499,-5.451,-5.46,-5.4666,-5.4537,-5.4543,-5.4838,-5.4846,-5.4852,-5.4958,0,0,0,0,0,0,-5.4357,-5.4367,-5.4488,-5.4491,-5.4389,-5.4428,-5.4433,-5.4466,-5.4488,-5.4487,-5.4448,-5.444,-5.4502,-5.451,-5.4518,-5.4665,-5.4529,-5.4535,-5.4538,-5.4844,-5.4849,-5.4855,0,0,0,0,0,0,-5.4359,-5.437,-5.4489,-5.4442,-5.444,-5.4422,-5.4427,-5.4498,-5.4489,-5.4442,-5.4437,-5.4444,-5.4489,-5.451,-5.4517,-5.463,-5.4523,-5.4528,-5.4532,-5.4534,-5.4848,-5.4853,0,0,0,0,0,0,-5.4363,-5.4373,-5.4441,-5.4439,-5.4437,-5.4473,-5.4485,-5.4557,-5.4448,-5.4442,-5.4437,-5.4433,-5.4491,-5.4497,-5.4516,-5.4626,-5.4629,-5.4523,-5.4526,-5.4529,-5.4531,0,0,0,0,0,0,0,-5.4367,-5.4306,-5.4468,-5.4437,-5.4435,-5.4522,-5.4523,-5.4524,-5.4447,-5.4443,-5.4438,-5.4435,-5.4491,-5.4497,-5.4503,-5.4624,0,0,-5.4522,-5.4525,0,0,0,0,0,0,0,0,-5.4302,-5.4305,-5.4468,-5.4469,-5.4469,-5.4522,-5.4523,-5.4524,-5.4446,-5.4443,-5.4439,-5.4436,-5.4493,-5.4498,-5.4503,0,0,0,0,0,0,0,0,0,0,0,0,0,0,0,-5.4468,-5.4469,0,-5.4522,-5.4523,-5.4523,-5.4446,-5.4443,-5.444,-5.4437,-5.4494,-5.4498,-5.4502,0,0,0,0,0,0,0,0,0,0,0,0,0,0,0,0,0,0,0,0,0,0,0,0,0,0,0,0,0,0,0,0,0,0,0,0,0,0,0,0,0,0,0,0,0,0,0,0,0,0,0,0,0,0,0,0,0,0,0,0,0,0,0,0,0,0,0,0,0]}],[{"header":{"parameterUnit":"kt","parameterCategory":2,"dx":1,"dy":1,"la1":30.253999710083008,"la2":30.299108505249023,"lo1":-89.0895004272461,"lo2":-89.04439544677734,"nx":28,"ny":28,"refTime":"2022-11-01T21:00:00:Z","depth":0,"parameterNumber":2,"parameterNumberName":"V-component_of_WINDS"},"data":[-2.0815,-2.0843,-2.0829,-2.0855,-2.0847,-2.0863,-2.0864,-2.0864,-2.0861,-2.0878,-2.0886,-2.0875,-2.0866,-2.0872,-2.088,-2.0875,-2.088,-2.09,-2.0891,-2.0813,-2.0801,-2.079,-2.0782,-2.0901,-2.0901,-2.0974,-2.0975,-2.0975,-2.0759,-2.0751,-2.076,-2.076,-2.0768,-2.074,-2.0738,-2.0747,-2.0762,-2.0758,-2.0765,-2.0779,-2.0789,-2.0773,-2.078,-2.0794,-2.0781,-2.0797,-2.0796,-2.0795,-2.0711,-2.0703,-2.0807,-2.0807,-2.0807,-2.0807,-2.0807,-2.0807,-2.0652,-2.067,-2.0661,-2.0672,-2.0668,-2.0668,-2.0683,-2.0668,-2.0678,-2.0683,-2.0665,-2.0682,-2.0675,-2.0677,-2.0675,-2.0687,-2.0668,-2.0681,-2.0684,-2.0688,-2.0694,-2.0591,-2.0688,-2.0688,-2.0687,-2.0687,-2.0687,0,-2.057,-2.0557,-2.0565,-2.057,-2.0576,-2.0578,-2.0578,-2.0587,-2.0554,-2.0564,-2.0576,-2.0581,-2.0591,-2.0602,-2.0605,-2.0599,-2.0572,-2.0568,-2.0577,-2.0586,-2.0594,-2.0591,-2.0455,-2.0565,-2.0564,-2.0563,-2.0563,-2.0562,-2.0462,-2.0485,-2.0469,-2.0477,-2.0473,-2.0486,-2.0491,-2.0461,-2.0468,-2.0463,-2.048,-2.049,-2.0496,-2.0519,-2.0503,-2.0511,-2.0498,-2.0541,-2.0499,-2.0507,-2.0499,-2.0498,-2.05,-2.0551,-2.0552,-2.0553,-2.0554,0,-2.0403,-2.038,-2.041,-2.0392,-2.0388,-2.0413,-2.0398,-2.0415,-2.0399,-2.042,-2.0423,-2.0399,-2.0412,-2.0388,-2.0399,-2.0386,-2.0428,-2.0415,-2.043,-2.0426,-2.0463,-2.0461,-2.0587,-2.0603,-2.0478,-2.048,-2.0481,0,-2.0302,-2.0333,-2.0296,-2.0315,-2.0347,-2.0316,-2.0349,-2.0339,-2.0333,-2.0349,-2.0313,-2.0329,-2.0297,-2.0309,-2.0291,-2.0321,-2.0322,-2.0315,-2.031,-2.0318,-2.032,-2.0322,-2.0317,-2.0296,-2.0296,-2.0295,-2.0295,0,-2.0212,-2.0228,-2.0258,-2.0258,-2.0242,-2.0257,-2.0252,-2.0244,-2.025,-2.0253,-2.0256,-2.0262,-2.0266,-2.0271,-2.0247,-2.0219,-2.0283,-2.0239,-2.0275,-2.0276,-2.0291,-2.0291,-2.0408,-2.0294,-2.0294,-2.0294,-2.0293,0,-2.0128,-2.0131,-2.0178,-2.0163,-2.0169,-2.0189,-2.0192,-2.0204,-2.0199,-2.0188,-2.019,-2.0164,-2.0188,-2.0146,-2.0178,-2.0148,-2.0154,-2.0149,-2.0151,-2.0152,-2.0107,-2.0177,-2.0291,-2.0302,-2.0153,-2.0151,-2.015,0,-2.0031,-2.0072,-2.0045,-2.0091,-2.0106,-2.0065,-2.0087,-2.0083,-2.007,-2.0082,-2.0068,-2.0082,-2.0046,-2.0047,-2.0066,-2.0053,-2.0091,-2.0046,-2.0065,-2.0066,-2.0068,-2.0172,-2.0195,-2.0268,-2.0135,-2.0137,-2.0138,0,-1.9954,-1.9934,-1.9944,-1.9943,-1.9932,-1.9945,-1.997,-1.9977,-1.9986,-1.9986,-2.0006,-2.0024,-1.9998,-2.0,-1.998,-2.0001,-2.0064,-1.997,-1.9969,-1.9988,-2.0125,-2.0147,-2.0159,-2.0046,-2.0048,-2.0049,-2.0126,0,-1.9832,-1.9849,-1.9875,-1.9873,-1.9879,-1.9906,-1.988,-1.989,-1.9869,-1.9855,-1.9885,-1.9876,-1.9883,-1.9891,-1.9871,-1.9926,-1.9913,-1.9885,-1.9844,-1.9912,-1.9937,-1.9947,-1.9809,-1.9808,-1.9807,-1.9806,0,0,-1.9746,-1.977,-1.974,-1.9763,-1.9766,-1.9723,-1.9754,-1.9752,-1.975,-1.9754,-1.973,-1.9756,-1.975,-1.9788,-1.9807,-1.981,-1.9818,-1.9795,-1.988,-1.9888,-1.9896,-1.9923,-1.9933,-1.9804,-1.9803,-1.9803,-1.9802,0,-1.9696,-1.969,-1.9721,-1.9717,-1.9711,-1.9695,-1.9702,-1.9689,-1.9682,-1.971,-1.9674,-1.9689,-1.971,-1.9709,-1.9711,-1.979,-1.9763,-1.9794,-1.9845,-1.9869,-1.9879,-1.9887,-1.9916,-1.9927,-1.98,-1.98,-1.98,0,-1.9615,-1.9605,-1.9617,-1.9622,-1.9618,-1.9636,-1.9585,-1.9606,-1.9618,-1.9571,-1.96,-1.9592,-1.9587,-1.9627,-1.9644,-1.9623,-1.9714,-1.968,-1.9687,-1.9689,-1.9711,-1.9723,-1.9733,-1.9594,-1.9593,-1.9592,0,0,-1.9576,-1.9592,-1.9571,-1.961,-1.961,-1.9586,-1.9592,-1.9572,-1.9569,-1.9568,-1.9557,-1.9555,-1.9567,-1.9575,-1.9585,-1.9632,-1.9629,-1.9656,-1.9666,-1.9674,-1.968,-1.9704,-1.9716,-1.959,-1.959,-1.959,0,0,-1.9557,-1.9535,-1.9514,-1.9555,-1.9553,-1.9536,-1.9561,-1.9535,-1.9542,-1.9536,-1.9503,-1.9501,-1.9538,-1.9531,-1.9503,-1.957,-1.953,-1.9536,-1.9573,-1.9585,-1.9595,-1.9596,-1.9451,0,0,0,0,0,-1.9493,-1.9537,-1.9519,-1.9522,-1.9529,-1.9546,-1.9547,-1.9521,-1.9493,-1.9513,-1.9499,-1.947,-1.9509,-1.9484,-1.9487,-1.9519,-1.956,-1.9565,-1.957,-1.963,-1.9642,-1.9653,0,0,0,0,0,0,-1.9494,-1.9498,-1.9518,-1.9503,-1.9504,-1.9545,-1.9491,-1.9485,-1.949,-1.9484,-1.9473,-1.9469,-1.9448,-1.948,-1.9484,-1.9515,-1.945,-1.9562,-1.9567,-1.9571,-1.9634,-1.9644,-1.9653,0,0,0,0,0,-1.9494,-1.9497,-1.9515,-1.9502,-1.9503,-1.9479,-1.9489,-1.9483,-1.9487,-1.9466,-1.9462,-1.9467,-1.9449,-1.9451,-1.9482,-1.9514,-1.9447,-1.9448,-1.9565,-1.9569,-1.9572,-1.9639,0,0,0,0,0,0,-1.9495,-1.9493,-1.9515,-1.9514,-1.9483,-1.9476,-1.9474,-1.9482,-1.9469,-1.9464,-1.9458,-1.9454,-1.9451,-1.9452,-1.9453,-1.9515,-1.9445,-1.9446,-1.9447,-1.9568,-1.9571,-1.9573,0,0,0,0,0,0,-1.9491,-1.9493,-1.9514,-1.9492,-1.9489,-1.9474,-1.9472,-1.9495,-1.9469,-1.9461,-1.9457,-1.9456,-1.9449,-1.9453,-1.9454,-1.949,-1.9443,-1.9444,-1.9445,-1.9446,-1.957,-1.9572,0,0,0,0,0,0,-1.9491,-1.9493,-1.9492,-1.949,-1.9486,-1.9477,-1.9494,-1.9502,-1.945,-1.9463,-1.9444,-1.9442,-1.9451,-1.9451,-1.9454,-1.9491,-1.949,-1.9443,-1.9444,-1.9445,-1.9445,0,0,0,0,0,0,0,-1.9491,-1.9488,-1.9519,-1.9487,-1.9484,-1.9508,-1.9508,-1.9508,-1.9449,-1.9447,-1.9445,-1.9443,-1.9434,-1.9436,-1.9438,-1.9491,0,0,-1.9443,-1.9444,0,0,0,0,0,0,0,0,-1.9487,-1.9488,-1.9518,-1.9518,-1.9518,-1.9508,-1.9508,-1.9508,-1.9449,-1.9447,-1.9445,-1.9443,-1.9435,-1.9436,-1.9438,0,0,0,0,0,0,0,0,0,0,0,0,0,0,0,-1.9518,-1.9518,0,-1.9508,-1.9508,-1.9508,-1.9448,-1.9447,-1.9446,-1.9444,-1.9435,-1.9436,-1.9437,0,0,0,0,0,0,0,0,0,0,0,0,0,0,0,0,0,0,0,0,0,0,0,0,0,0,0,0,0,0,0,0,0,0,0,0,0,0,0,0,0,0,0,0,0,0,0,0,0,0,0,0,0,0,0,0,0,0,0,0,0,0,0,0,0,0,0,0,0]}]]]